Retour au catalogue

STARLINK-5058

ActifCommunicationsVLEO
NORAD 55456·PAYLOAD·🇺🇸 United States

Lancé Feb 2, 2023 depuis Cape Canaveral Space Force Station

Loading…

Prochains Passages (prochaines 24 heures)

TLE

FraisSource: CelesTrak SupGP

Époque: Sep 14, 2026, 21:27 UTC

1 55456C 23015H   26257.89423611 -.00055402  00000+0 -20065-2 0  2571
2 55456  43.0016 340.1239 0001509 266.8037 297.3255 15.27608261    12

Suivez STARLINK-5058 en temps réel avec AllMySat

Download on the App Store